| time (UTC) | temp F | wind direction | speed MPH | gust MPH | rain 1hr in | rain 24hr in | rain mn in | humidity % | barometer mb |
| 20260502163401 | 67 | 46 | 3.0 | 6.0 | 0.00 | 0.33 | 0.00 | 59 | 1022.2 |
| 20260502163219 | 67 | 172 | 3.0 | 6.0 | 0.00 | 0.33 | 0.00 | 60 | 1022.3 |
| 20260502162922 | 67 | 59 | 3.0 | 5.0 | 0.00 | 0.33 | 0.00 | 59 | 1022.2 |
| 20260502161900 | 66 | 44 | 3.0 | 6.0 | 0.00 | 0.33 | 0.00 | 59 | 1022.3 |
| 20260502161400 | 66 | 214 | 3.0 | 8.0 | 0.00 | 0.33 | 0.00 | 60 | 1022.3 |
| 20260502160901 | 67 | 244 | 3.0 | 10.0 | 0.00 | 0.33 | 0.00 | 59 | 1022.3 |
| 20260502160401 | 66 | 54 | 3.0 | 10.0 | 0.00 | 0.33 | 0.00 | 59 | 1022.2 |
| 20260502151902 | 64 | 86 | 4.0 | 12.0 | 0.00 | 0.37 | 0.00 | 65 | 1022.1 |
| 20260502151400 | 64 | 49 | 4.0 | 14.0 | 0.00 | 0.37 | 0.00 | 65 | 1022.1 |
| 20260502151148 | 63 | 279 | 4.0 | 14.0 | 0.00 | 0.39 | 0.00 | 67 | 1022.1 |
| 20260502150401 | 63 | 26 | 3.0 | 10.0 | 0.00 | 0.39 | 0.00 | 66 | 1022.0 |
| 20260502130401 | 55 | 74 | 1.0 | 2.0 | 0.00 | 0.68 | 0.00 | 87 | 1021.0 |
| 20260502123401 | 51 | 223 | 1.0 | 3.0 | 0.00 | 0.70 | 0.00 | 94 | 1020.5 |
| 20260502122901 | 50 | 49 | 1.0 | 3.0 | 0.00 | 0.70 | 0.00 | 96 | 1020.5 |
| 20260502122401 | 50 | 276 | 0.0 | 2.0 | 0.00 | 0.70 | 0.00 | 96 | 1020.5 |
| 20260502121901 | 49 | 0 | 0.0 | 2.0 | 0.00 | 0.70 | 0.00 | 96 | 1020.3 |
| 20260502121625 | 49 | 0 | 0.0 | 2.0 | 0.00 | 0.72 | 0.00 | 96 | 1020.2 |
| 20260502120901 | 49 | 254 | 0.0 | 1.0 | 0.00 | 0.74 | 0.00 | 96 | 1020.2 |
| 20260502120401 | 49 | 88 | 0.0 | 1.0 | 0.00 | 0.77 | 0.00 | 96 | 1020.1 |
| 20260502115901 | 49 | 28 | 0.0 | 1.0 | 0.00 | 0.81 | 0.00 | 96 | 1020.0 |
| 20260502115401 | 48 | 0 | 1.0 | 2.0 | 0.00 | 0.85 | 0.00 | 96 | 1019.9 |
| 20260502114901 | 48 | 88 | 1.0 | 2.0 | 0.00 | 0.87 | 0.00 | 96 | 1019.8 |
| 20260502114626 | 48 | 132 | 0.0 | 2.0 | 0.00 | 0.88 | 0.00 | 96 | 1019.8 |
| 20260502114349 | 48 | 0 | 1.0 | 2.0 | 0.00 | 0.88 | 0.00 | 96 | 1019.8 |
| 20260502113402 | 49 | 332 | 1.0 | 2.0 | 0.00 | 0.89 | 0.00 | 96 | 1019.7 |
| 20260502112901 | 49 | 41 | 1.0 | 2.0 | 0.00 | 0.89 | 0.00 | 95 | 1019.8 |
| 20260502112401 | 49 | 0 | 1.0 | 2.0 | 0.00 | 0.91 | 0.00 | 95 | 1019.5 |
| 20260502111900 | 49 | 271 | 1.0 | 2.0 | 0.00 | 0.93 | 0.00 | 95 | 1019.5 |
| 20260502111401 | 49 | 355 | 1.0 | 2.0 | 0.00 | 0.93 | 0.00 | 95 | 1019.5 |
| 20260502110901 | 49 | 252 | 1.0 | 2.0 | 0.00 | 0.94 | 0.00 | 95 | 1019.3 |
| 20260502110401 | 49 | 0 | 1.0 | 2.0 | 0.00 | 0.96 | 0.00 | 94 | 1019.2 |
| 20260502105901 | 49 | 255 | 0.0 | 2.0 | 0.00 | 0.98 | 0.00 | 94 | 1019.2 |
| 20260502105403 | 50 | 267 | 0.0 | 2.0 | 0.00 | 1.01 | 0.00 | 94 | 1019.0 |
| 20260502104903 | 50 | 284 | 1.0 | 3.0 | 0.00 | 1.02 | 0.00 | 94 | 1018.8 |
| 20260502104400 | 50 | 270 | 1.0 | 3.0 | 0.00 | 1.05 | 0.00 | 94 | 1018.8 |
| 20260502103901 | 50 | 253 | 1.0 | 3.0 | 0.00 | 1.08 | 0.00 | 94 | 1018.7 |
| 20260502103401 | 50 | 0 | 1.0 | 3.0 | 0.00 | 1.10 | 0.00 | 94 | 1018.6 |
| 20260502102901 | 50 | 1 | 1.0 | 3.0 | 0.00 | 1.13 | 0.00 | 94 | 1018.5 |
| 20260502102402 | 50 | 281 | 1.0 | 3.0 | 0.00 | 1.17 | 0.00 | 94 | 1018.4 |
| 20260502101901 | 50 | 235 | 1.0 | 4.0 | 0.00 | 1.17 | 0.00 | 93 | 1018.3 |
| 20260502101401 | 50 | 44 | 1.0 | 4.0 | 0.00 | 1.18 | 0.00 | 93 | 1018.3 |
| 20260502100901 | 51 | 55 | 2.0 | 4.0 | 0.00 | 1.19 | 0.00 | 93 | 1018.2 |
| 20260502100401 | 51 | 44 | 2.0 | 4.0 | 0.00 | 1.19 | 0.00 | 93 | 1018.2 |
| 20260502091401 | 51 | 224 | 2.0 | 3.0 | 0.00 | 1.29 | 0.00 | 94 | 1017.9 |
| 20260502090902 | 51 | 228 | 2.0 | 3.0 | 0.00 | 1.29 | 0.00 | 94 | 1017.8 |
| 20260502090402 | 51 | 318 | 2.0 | 4.0 | 0.00 | 1.29 | 0.00 | 93 | 1017.8 |
| 20260502090131 | 51 | 41 | 2.0 | 4.0 | 0.00 | 1.29 | 0.00 | 93 | 1017.8 |
| 20260502070833 | 52 | 188 | 1.0 | 3.0 | 0.00 | 1.34 | 0.00 | 92 | 1017.7 |
| 20260502070333 | 52 | 8 | 1.0 | 4.0 | 0.00 | 1.34 | 0.00 | 92 | 1017.7 |
| 20260502065832 | 52 | 249 | 1.0 | 4.0 | 0.00 | 1.35 | 0.00 | 91 | 1017.8 |
| 20260502065333 | 52 | 312 | 1.0 | 4.0 | 0.00 | 1.35 | 0.00 | 91 | 1017.7 |
| 20260502064833 | 52 | 108 | 1.0 | 3.0 | 0.00 | 1.35 | 0.00 | 91 | 1017.7 |
| 20260502064333 | 53 | 22 | 1.0 | 3.0 | 0.00 | 1.35 | 0.00 | 90 | 1017.7 |
| 20260502063833 | 53 | 26 | 1.0 | 3.0 | 0.00 | 1.35 | 0.00 | 90 | 1017.7 |
| 20260502063330 | 53 | 358 | 1.0 | 3.0 | 0.00 | 1.35 | 0.00 | 91 | 1017.7 |
| 20260502062830 | 53 | 9 | 1.0 | 3.0 | 0.00 | 1.35 | 0.00 | 91 | 1017.7 |
| 20260502062330 | 53 | 72 | 1.0 | 2.0 | 0.00 | 1.35 | 0.00 | 90 | 1017.7 |
| 20260502062104 | 53 | 27 | 1.0 | 2.0 | 0.00 | 1.35 | 0.00 | 90 | 1017.8 |
| 20260502061330 | 53 | 344 | 1.0 | 3.0 | 0.00 | 1.35 | 0.00 | 90 | 1017.8 |
| 20260502060829 | 53 | 187 | 2.0 | 4.0 | 0.00 | 1.35 | 0.00 | 90 | 1017.9 |
| 20260502060320 | 53 | 104 | 2.0 | 4.0 | 0.00 | 1.35 | 0.00 | 90 | 1017.9 |
| 20260502055820 | 53 | 346 | 2.0 | 4.0 | 0.00 | 1.35 | 0.00 | 91 | 1017.9 |
| 20260502055320 | 53 | 275 | 2.0 | 3.0 | 0.00 | 1.35 | 0.00 | 90 | 1017.8 |
| 20260502054820 | 54 | 68 | 2.0 | 2.0 | 0.00 | 1.35 | 0.00 | 90 | 1017.9 |
| 20260502054321 | 54 | 41 | 2.0 | 2.0 | 0.00 | 1.35 | 0.00 | 89 | 1017.9 |
| 20260502054316 | 54 | 46 | 2.0 | 2.0 | 0.00 | 1.35 | 0.00 | 89 | 1017.8 |
| 20260502053321 | 54 | 48 | 2.0 | 2.0 | 0.00 | 1.35 | 0.00 | 90 | 1017.7 |
| 20260502053048 | 54 | 46 | 2.0 | 2.0 | 0.00 | 1.35 | 0.00 | 90 | 1017.8 |
| 20260502052306 | 54 | 47 | 2.0 | 3.0 | 0.00 | 1.35 | 0.00 | 89 | 1017.8 |
| 20260502051805 | 54 | 46 | 2.0 | 3.0 | 0.00 | 1.35 | 0.00 | 89 | 1017.7 |
| 20260502051533 | 54 | 47 | 2.0 | 3.0 | 0.00 | 1.36 | 0.00 | 89 | 1017.6 |
| 20260502050805 | 54 | 46 | 2.0 | 2.0 | 0.00 | 1.36 | 0.00 | 88 | 1017.6 |
| 20260502050304 | 54 | 41 | 2.0 | 2.0 | 0.00 | 1.36 | 0.00 | 88 | 1017.6 |
| 20260502045804 | 54 | 56 | 2.0 | 4.0 | 0.00 | 1.36 | 1.36 | 88 | 1017.6 |
| 20260502045306 | 54 | 53 | 2.0 | 4.0 | 0.00 | 1.37 | 1.36 | 89 | 1017.6 |
| 20260502044805 | 54 | 26 | 2.0 | 4.0 | 0.00 | 1.37 | 1.36 | 89 | 1017.5 |
| 20260502044539 | 55 | 49 | 2.0 | 4.0 | 0.00 | 1.38 | 1.36 | 89 | 1017.5 |
| 20260502044256 | 55 | 224 | 2.0 | 3.0 | 0.00 | 1.38 | 1.36 | 89 | 1017.5 |
| 20260502043536 | 55 | 57 | 2.0 | 3.0 | 0.00 | 1.39 | 1.36 | 89 | 1017.5 |
| 20260502042805 | 55 | 49 | 2.0 | 3.0 | 0.00 | 1.39 | 1.36 | 89 | 1017.5 |
| 20260502042307 | 55 | 213 | 2.0 | 2.0 | 0.00 | 1.39 | 1.36 | 90 | 1017.6 |
| 20260502041805 | 55 | 55 | 2.0 | 2.0 | 0.00 | 1.39 | 1.36 | 91 | 1017.5 |
| 20260502041305 | 55 | 54 | 2.0 | 2.0 | 0.00 | 1.39 | 1.36 | 91 | 1017.5 |
| 20260502040805 | 55 | 24 | 2.0 | 2.0 | 0.00 | 1.39 | 1.36 | 91 | 1017.5 |
| 20260502040303 | 55 | 58 | 2.0 | 2.0 | 0.00 | 1.39 | 1.36 | 91 | 1017.6 |
| 20260502035803 | 55 | 29 | 2.0 | 2.0 | 0.00 | 1.39 | 1.36 | 91 | 1017.6 |
| 20260502035306 | 55 | 47 | 2.0 | 3.0 | 0.00 | 1.39 | 1.36 | 91 | 1017.7 |
| 20260502034802 | 55 | 36 | 2.0 | 3.0 | 0.00 | 1.39 | 1.36 | 91 | 1017.6 |
| 20260502034301 | 55 | 50 | 2.0 | 3.0 | 0.00 | 1.40 | 1.36 | 91 | 1017.5 |
| 20260502033802 | 55 | 222 | 2.0 | 3.0 | 0.00 | 1.40 | 1.36 | 91 | 1017.5 |
| 20260502033301 | 55 | 222 | 2.0 | 4.0 | 0.00 | 1.40 | 1.36 | 91 | 1017.5 |
| 20260502032813 | 55 | 48 | 2.0 | 3.0 | 0.00 | 1.40 | 1.36 | 91 | 1017.5 |
| 20260502032808 | 55 | 45 | 2.0 | 4.0 | 0.00 | 1.40 | 1.36 | 91 | 1017.5 |
| 20260502031802 | 55 | 48 | 2.0 | 3.0 | 0.00 | 1.40 | 1.36 | 91 | 1017.4 |
| 20260502031252 | 55 | 46 | 2.0 | 3.0 | 0.00 | 1.40 | 1.36 | 91 | 1017.4 |
| 20260502031019 | 55 | 221 | 2.0 | 3.0 | 0.00 | 1.40 | 1.36 | 91 | 1017.4 |
| 20260502030250 | 55 | 49 | 2.0 | 4.0 | 0.00 | 1.40 | 1.36 | 91 | 1017.3 |
| 20260502025750 | 55 | 47 | 2.0 | 4.0 | 0.00 | 1.40 | 1.36 | 90 | 1017.2 |
| 20260502025510 | 55 | 47 | 2.0 | 3.0 | 0.00 | 1.41 | 1.36 | 91 | 1017.1 |
| 20260502024737 | 55 | 49 | 3.0 | 5.0 | 0.00 | 1.41 | 1.36 | 90 | 1017.1 |
| 20260502024238 | 55 | 48 | 3.0 | 6.0 | 0.00 | 1.41 | 1.36 | 90 | 1017.0 |
| 20260502024004 | 55 | 46 | 4.0 | 6.0 | 0.00 | 1.41 | 1.36 | 89 | 1016.9 |
| 20260502023230 | 55 | 45 | 4.0 | 6.0 | 0.00 | 1.41 | 1.36 | 88 | 1016.7 |
| 20260502023013 | 55 | 47 | 4.0 | 6.0 | 0.00 | 1.41 | 1.36 | 87 | 1016.6 |
| 20260502022514 | 55 | 47 | 3.0 | 6.0 | 0.00 | 1.41 | 1.36 | 90 | 1016.6 |
| 20260502021729 | 55 | 46 | 3.0 | 6.0 | 0.00 | 1.41 | 1.36 | 90 | 1016.4 |
| 20260502021229 | 55 | 48 | 3.0 | 5.0 | 0.00 | 1.41 | 1.36 | 91 | 1016.3 |
| 20260502020729 | 55 | 46 | 3.0 | 6.0 | 0.00 | 1.41 | 1.36 | 91 | 1016.3 |
| 20260502020513 | 55 | 46 | 3.0 | 6.0 | 0.00 | 1.41 | 1.36 | 91 | 1016.2 |
| 20260502020018 | 55 | 46 | 4.0 | 6.0 | 0.00 | 1.41 | 1.36 | 91 | 1016.2 |
| 20260502015231 | 55 | 49 | 3.0 | 5.0 | 0.00 | 1.41 | 1.36 | 91 | 1016.1 |
| 20260502014729 | 55 | 47 | 4.0 | 5.0 | 0.00 | 1.41 | 1.36 | 91 | 1016.0 |
| 20260502014230 | 55 | 47 | 4.0 | 5.0 | 0.00 | 1.41 | 1.36 | 91 | 1015.9 |
| 20260502013729 | 55 | 50 | 4.0 | 5.0 | 0.00 | 1.41 | 1.36 | 90 | 1015.9 |
| 20260502013302 | 55 | 47 | 4.0 | 7.0 | 0.00 | 1.41 | 1.36 | 90 | 1015.8 |
| 20260502013252 | 55 | 47 | 4.0 | 6.0 | 0.00 | 1.41 | 1.36 | 90 | 1015.8 |
| 20260502012513 | 55 | 48 | 4.0 | 7.0 | 0.00 | 1.41 | 1.36 | 90 | 1015.7 |
| 20260502011730 | 55 | 48 | 5.0 | 6.0 | 0.00 | 1.41 | 1.36 | 90 | 1015.6 |
| 20260502011229 | 55 | 48 | 4.0 | 6.0 | 0.00 | 1.41 | 1.36 | 90 | 1015.5 |
| 20260502010730 | 55 | 47 | 4.0 | 6.0 | 0.00 | 1.41 | 1.36 | 91 | 1015.4 |
| 20260502010229 | 55 | 48 | 5.0 | 7.0 | 0.00 | 1.41 | 1.36 | 91 | 1015.3 |
| 20260502005730 | 55 | 46 | 5.0 | 12.0 | 0.00 | 1.41 | 1.36 | 91 | 1015.3 |
| 20260502005229 | 55 | 48 | 5.0 | 12.0 | 0.00 | 1.41 | 1.36 | 91 | 1015.0 |
| 20260502004730 | 55 | 46 | 5.0 | 8.0 | 0.00 | 1.41 | 1.36 | 91 | 1015.2 |
| 20260502004229 | 55 | 47 | 5.0 | 8.0 | 0.00 | 1.41 | 1.36 | 91 | 1014.9 |
| 20260502003729 | 55 | 47 | 5.0 | 8.0 | 0.00 | 1.41 | 1.36 | 91 | 1014.7 |
| 20260502003549 | 55 | 46 | 5.0 | 8.0 | 0.00 | 1.41 | 1.36 | 91 | 1014.7 |
| 20260502002948 | 55 | 49 | 5.0 | 7.0 | 0.00 | 1.41 | 1.36 | 92 | 1014.6 |
| 20260502002230 | 55 | 49 | 5.0 | 7.0 | 0.00 | 1.41 | 1.36 | 92 | 1014.4 |
| 20260502001730 | 55 | 50 | 5.0 | 7.0 | 0.00 | 1.41 | 1.36 | 93 | 1014.4 |
| 20260502001230 | 54 | 47 | 5.0 | 7.0 | 0.00 | 1.41 | 1.36 | 93 | 1014.2 |
| 20260502000731 | 54 | 46 | 4.0 | 7.0 | 0.00 | 1.41 | 1.36 | 94 | 1014.3 |
| 20260502000230 | 54 | 45 | 4.0 | 7.0 | 0.00 | 1.41 | 1.36 | 94 | 1014.2 |
| 20260502000046 | 54 | 48 | 4.0 | 7.0 | 0.00 | 1.41 | 1.36 | 94 | 1014.7 |
| 20260502000042 | 54 | 46 | 4.0 | 7.0 | 0.00 | 1.41 | 1.36 | 94 | 1014.6 |
| 20260501234730 | 54 | 46 | 4.0 | 7.0 | 0.00 | 1.41 | 1.36 | 94 | 1014.7 |
| 20260501234230 | 54 | 46 | 4.0 | 8.0 | 0.00 | 1.41 | 1.36 | 95 | 1014.7 |
| 20260501233730 | 54 | 47 | 4.0 | 8.0 | 0.00 | 1.41 | 1.36 | 96 | 1014.4 |
| 20260501233233 | 55 | 48 | 4.0 | 7.0 | 0.00 | 1.41 | 1.36 | 96 | 1014.1 |
| 20260501232731 | 55 | 47 | 5.0 | 11.0 | 0.00 | 1.41 | 1.36 | 96 | 1013.8 |
| 20260501232229 | 55 | 48 | 6.0 | 11.0 | 0.01 | 1.41 | 1.36 | 97 | 1013.9 |
| 20260501231730 | 55 | 221 | 6.0 | 11.0 | 0.01 | 1.41 | 1.36 | 97 | 1014.1 |
| 20260501231228 | 55 | 49 | 6.0 | 11.0 | 0.02 | 1.41 | 1.36 | 97 | 1014.1 |
| 20260501230730 | 55 | 40 | 4.0 | 10.0 | 0.02 | 1.42 | 1.36 | 97 | 1013.9 |
| 20260501230231 | 55 | 39 | 5.0 | 8.0 | 0.02 | 1.42 | 1.36 | 97 | 1013.8 |
| 20260501225730 | 55 | 47 | 5.0 | 8.0 | 0.02 | 1.41 | 1.36 | 97 | 1013.8 |
| 20260501225230 | 55 | 44 | 5.0 | 8.0 | 0.04 | 1.41 | 1.36 | 97 | 1013.7 |
| 20260501224802 | 55 | 49 | 3.0 | 5.0 | 0.07 | 1.41 | 1.36 | 98 | 1013.5 |
| 20260501224750 | 55 | 49 | 4.0 | 8.0 | 0.05 | 1.41 | 1.36 | 98 | 1013.5 |
| 20260501223730 | 55 | 48 | 3.0 | 5.0 | 0.07 | 1.41 | 1.36 | 98 | 1013.6 |
| 20260501223225 | 55 | 49 | 3.0 | 7.0 | 0.09 | 1.41 | 1.36 | 97 | 1013.8 |
| 20260501222713 | 56 | 46 | 4.0 | 7.0 | 0.09 | 1.41 | 1.36 | 97 | 1013.7 |
| 20260501222213 | 56 | 47 | 4.0 | 10.0 | 0.09 | 1.41 | 1.35 | 97 | 1013.7 |
| 20260501221713 | 56 | 44 | 4.0 | 11.0 | 0.09 | 1.41 | 1.35 | 97 | 1013.7 |
| 20260501221214 | 56 | 43 | 4.0 | 11.0 | 0.08 | 1.41 | 1.35 | 96 | 1013.5 |
| 20260501220714 | 56 | 49 | 5.0 | 19.0 | 0.07 | 1.41 | 1.34 | 96 | 1013.5 |
| 20260501220214 | 56 | 44 | 5.0 | 19.0 | 0.07 | 1.41 | 1.34 | 96 | 1013.4 |
| 20260501215713 | 56 | 46 | 4.0 | 14.0 | 0.07 | 1.34 | 1.33 | 95 | 1013.4 |
| 20260501215214 | 56 | 51 | 4.0 | 14.0 | 0.06 | 1.34 | 1.32 | 95 | 1013.7 |
| 20260501214714 | 56 | 49 | 3.0 | 7.0 | 0.04 | 1.34 | 1.30 | 95 | 1013.7 |
| 20260501214213 | 57 | 48 | 3.0 | 7.0 | 0.02 | 1.34 | 1.29 | 95 | 1013.5 |
| 20260501213714 | 57 | 190 | 4.0 | 10.0 | 0.02 | 1.34 | 1.28 | 94 | 1013.3 |
| 20260501213212 | 57 | 303 | 4.0 | 10.0 | 0.00 | 1.34 | 1.27 | 94 | 1012.9 |
| 20260501212958 | 57 | 214 | 6.0 | 9.0 | 0.00 | 1.34 | 1.27 | 94 | 1012.8 |
| 20260501212208 | 57 | 205 | 6.0 | 9.0 | 0.00 | 1.34 | 1.27 | 95 | 1012.6 |
| 20260501211708 | 58 | 48 | 6.0 | 9.0 | 0.00 | 1.34 | 1.27 | 95 | 1012.4 |
| 20260501211451 | 57 | 49 | 6.0 | 9.0 | 0.00 | 1.34 | 1.27 | 95 | 1012.5 |
| 20260501210708 | 58 | 43 | 6.0 | 9.0 | 0.00 | 1.34 | 1.27 | 95 | 1012.4 |
| 20260501210209 | 57 | 72 | 6.0 | 10.0 | 0.00 | 1.34 | 1.27 | 95 | 1012.1 |
| 20260501205708 | 57 | 34 | 6.0 | 10.0 | 0.01 | 1.34 | 1.27 | 96 | 1011.7 |
| 20260501205209 | 57 | 48 | 6.0 | 9.0 | 0.02 | 1.34 | 1.27 | 96 | 1011.8 |
| 20260501204709 | 57 | 35 | 6.0 | 9.0 | 0.03 | 1.34 | 1.27 | 96 | 1011.9 |
| 20260501204208 | 57 | 39 | 6.0 | 9.0 | 0.04 | 1.34 | 1.27 | 96 | 1011.6 |
| 20260501203945 | 57 | 56 | 6.0 | 9.0 | 0.05 | 1.34 | 1.27 | 96 | 1011.5 |
| 20260501203202 | 57 | 48 | 7.0 | 9.0 | 0.06 | 1.34 | 1.27 | 97 | 1011.4 |
| 20260501202702 | 57 | 28 | 7.0 | 10.0 | 0.06 | 1.34 | 1.27 | 97 | 1011.0 |
| 20260501202202 | 57 | 44 | 5.0 | 10.0 | 0.06 | 1.34 | 1.26 | 97 | 1011.5 |
| 20260501201702 | 57 | 47 | 5.0 | 10.0 | 0.06 | 1.34 | 1.26 | 97 | 1011.5 |
| 20260501201202 | 57 | 46 | 6.0 | 11.0 | 0.06 | 1.34 | 1.26 | 97 | 1011.6 |
| 20260501200702 | 57 | 44 | 6.0 | 12.0 | 0.06 | 1.34 | 1.26 | 97 | 1011.5 |
| 20260501200202 | 57 | 37 | 6.0 | 12.0 | 0.06 | 1.34 | 1.26 | 97 | 1011.0 |
| 20260501195702 | 57 | 34 | 6.0 | 12.0 | 0.06 | 1.28 | 1.26 | 97 | 1011.4 |
| 20260501195202 | 57 | 22 | 5.0 | 12.0 | 0.05 | 1.28 | 1.24 | 97 | 1011.7 |
| 20260501194702 | 57 | 346 | 4.0 | 11.0 | 0.04 | 1.28 | 1.24 | 97 | 1012.1 |
| 20260501194201 | 57 | 290 | 4.0 | 10.0 | 0.03 | 1.28 | 1.22 | 97 | 1012.5 |
| 20260501193702 | 57 | 50 | 4.0 | 10.0 | 0.02 | 1.28 | 1.22 | 97 | 1012.8 |
| 20260501193448 | 57 | 76 | 4.0 | 11.0 | 0.03 | 1.28 | 1.21 | 97 | 1012.8 |
| 20260501192703 | 57 | 15 | 4.0 | 11.0 | 0.04 | 1.28 | 1.20 | 98 | 1012.4 |
| 20260501192448 | 57 | 22 | 4.0 | 8.0 | 0.06 | 1.28 | 1.20 | 98 | 1012.1 |
| 20260501191702 | 57 | 9 | 4.0 | 9.0 | 0.11 | 1.28 | 1.20 | 98 | 1011.7 |
| 20260501191202 | 57 | 37 | 4.0 | 11.0 | 0.13 | 1.30 | 1.20 | 99 | 1011.5 |
| 20260501190701 | 57 | 23 | 4.0 | 13.0 | 0.15 | 1.30 | 1.20 | 99 | 1011.2 |
| 20260501190201 | 57 | 23 | 5.0 | 13.0 | 0.15 | 1.30 | 1.20 | 99 | 1010.9 |
| 20260501185701 | 57 | 21 | 6.0 | 16.0 | 0.15 | 1.16 | 1.20 | 99 | 1010.7 |
| 20260501185201 | 57 | 44 | 5.0 | 16.0 | 0.15 | 1.18 | 1.20 | 99 | 1011.2 |
| 20260501184944 | 57 | 339 | 4.0 | 9.0 | 0.16 | 1.20 | 1.20 | 99 | 1011.8 |
| 20260501184201 | 57 | 103 | 3.0 | 7.0 | 0.17 | 1.27 | 1.20 | 99 | 1012.5 |
| 20260501183701 | 57 | 32 | 3.0 | 6.0 | 0.17 | 1.31 | 1.20 | 99 | 1012.9 |
| 20260501183435 | 57 | 47 | 2.0 | 5.0 | 0.16 | 1.31 | 1.18 | 99 | 1013.2 |
| 20260501182702 | 57 | 353 | 2.0 | 4.0 | 0.14 | 1.31 | 1.17 | 98 | 1014.1 |
| 20260501182202 | 57 | 44 | 2.0 | 4.0 | 0.11 | 1.31 | 1.13 | 98 | 1014.6 |
| 20260501181929 | 57 | 34 | 2.0 | 4.0 | 0.07 | 1.31 | 1.09 | 98 | 1014.8 |
| 20260501181202 | 57 | 28 | 3.0 | 6.0 | 0.04 | 1.31 | 1.06 | 98 | 1014.6 |
| 20260501180701 | 57 | 29 | 3.0 | 6.0 | 0.02 | 1.31 | 1.05 | 98 | 1013.9 |
| 20260501180202 | 57 | 11 | 3.0 | 4.0 | 0.02 | 1.31 | 1.05 | 98 | 1013.2 |
| 20260501175702 | 57 | 4 | 3.0 | 4.0 | 0.02 | 1.29 | 1.05 | 98 | 1012.7 |
| 20260501175202 | 57 | 16 | 2.0 | 4.0 | 0.02 | 1.29 | 1.05 | 97 | 1012.6 |
| 20260501174932 | 58 | 1 | 3.0 | 4.0 | 0.01 | 1.29 | 1.04 | 97 | 1012.5 |
| 20260501174202 | 58 | 14 | 2.0 | 4.0 | 0.00 | 1.29 | 1.03 | 97 | 1012.5 |
| 20260501173705 | 58 | 22 | 2.0 | 4.0 | 0.00 | 1.29 | 1.03 | 97 | 1012.6 |
| 20260501173425 | 58 | 6 | 2.0 | 4.0 | 0.00 | 1.29 | 1.03 | 97 | 1012.8 |
| 20260501172703 | 58 | 21 | 3.0 | 4.0 | 0.00 | 1.29 | 1.03 | 97 | 1012.8 |
| 20260501172202 | 58 | 11 | 3.0 | 4.0 | 0.00 | 1.29 | 1.03 | 97 | 1012.5 |
| 20260501171702 | 58 | 4 | 3.0 | 4.0 | 0.00 | 1.29 | 1.03 | 97 | 1012.4 |
| 20260501171206 | 58 | 4 | 2.0 | 4.0 | 0.00 | 1.29 | 1.03 | 98 | 1011.8 |
| 20260501171202 | 58 | 1 | 2.0 | 4.0 | 0.00 | 1.29 | 1.03 | 98 | 1011.9 |
| 20260501170202 | 58 | 11 | 2.0 | 4.0 | 0.00 | 1.29 | 1.03 | 98 | 1011.9 |
| 20260501165702 | 58 | 9 | 2.0 | 3.0 | 0.00 | 1.29 | 1.03 | 99 | 1011.9 |
| 20260501165432 | 58 | 4 | 3.0 | 4.0 | 0.00 | 1.29 | 1.03 | 99 | 1012.1 |
| 20260501164702 | 58 | 7 | 2.0 | 4.0 | 0.01 | 1.30 | 1.03 | 100 | 1012.2 |
| 20260501164202 | 57 | 15 | 3.0 | 7.0 | 0.02 | 1.30 | 1.03 | 100 | 1012.1 |
| 20260501163700 | 57 | 1 | 3.0 | 7.0 | 0.02 | 1.32 | 1.03 | 100 | 1012.3 |